K0EG-WX Weather Reports


time (UTC)temp
C
wind
direction
speed
KPH
gust
KPH
rain 1hr
cm
rain 24hr
cm
rain mn
cm
humidity
%
barometer
mb
20260504180016 18 197 1.6 4.8 0.00 0.15 0.15 73 1006.1
20260504175016 18 197 1.6 4.8 0.00 0.15 0.15 75 1006.2
20260504174016 17 184 1.6 11.3 0.00 0.15 0.15 76 1006.2
20260504173016 17 165 1.6 4.8 0.00 0.15 0.15 78 1006.5
20260504172016 16 195 3.2 4.8 0.00 0.15 0.15 78 1006.8
20260504171016 16 192 1.6 4.8 0.00 0.15 0.15 80 1006.8
20260504151016 17 164 1.6 4.8 0.00 0.00 0.00 65 1008.3
20260504141036 18 160 1.6 8.0 0.00 0.00 0.00 61 1008.2
20260504081018 15 0.0 0.0 0.00 0.00 0.00 69 1009.1
20260504050017 18 185 1.6 8.0 0.00 0.00 0.00 58 1009.1
20260504045017 18 187 3.2 8.0 0.00 0.00 0.00 58 1009.2
20260504044017 18 170 1.6 6.4 0.00 0.00 0.00 58 1009.3
20260504043017 18 178 3.2 4.8 0.00 0.00 0.00 58 1009.5
20260504042017 18 169 1.6 6.4 0.00 0.00 0.00 57 1009.8
20260504041038 18 163 1.6 3.2 0.00 0.00 0.00 55 1010.0
20260504040017 19 133 0.0 3.2 0.00 0.00 0.00 54 1010.1
20260504035017 20 231 0.0 4.8 0.00 0.00 0.00 53 1010.1
20260504034017 20 173 1.6 6.4 0.00 0.00 0.00 52 1010.0
20260504033017 20 181 4.8 8.0 0.00 0.00 0.00 55 1009.9
20260504032017 20 157 4.8 9.7 0.00 0.00 0.00 55 1010.2
20260504031017 19 177 3.2 6.4 0.00 0.00 0.00 56 1010.6
20260504030017 19 183 1.6 4.8 0.00 0.00 0.00 55 1010.6
20260504025017 20 187 3.2 4.8 0.00 0.00 0.00 54 1010.3
20260504024042 20 170 1.6 3.2 0.00 0.00 0.00 53 1010.2
20260504023017 20 171 1.6 3.2 0.00 0.00 0.00 52 1010.2
20260504022057 19 174 1.6 3.2 0.00 0.00 0.00 53 1010.2
20260504021017 19 0.0 0.0 0.00 0.00 0.00 55 1010.2
20260504020017 20 0.0 0.0 0.00 0.00 0.00 54 1010.1
20260504015017 20 0.0 0.0 0.00 0.00 0.00 52 1010.2
20260504014017 21 0.0 0.0 0.00 0.00 0.00 48 1010.1
20260504013017 21 0.0 0.0 0.00 0.00 0.00 48 1009.9
20260504012057 21 0.0 0.0 0.00 0.00 0.00 47 1009.7
20260504011037 21 0.0 0.0 0.00 0.00 0.00 46 1009.7
20260504010017 22 0.0 0.0 0.00 0.00 0.00 45 1009.6
20260504005037 22 0.0 0.0 0.00 0.00 0.00 44 1009.6
20260504004017 23 0.0 1.6 0.00 0.00 0.00 42 1009.6
20260504003017 23 182 0.0 3.2 0.00 0.00 0.00 41 1009.6
20260504002017 23 168 0.0 3.2 0.00 0.00 0.00 40 1009.6
20260504001017 23 174 1.6 4.8 0.00 0.00 0.00 39 1009.6
20260504000017 23 182 3.2 11.3 0.00 0.00 0.00 39 1009.6
20260503235037 24 180 3.2 12.9 0.00 0.00 0.00 39 1009.7
20260503234017 24 185 3.2 11.3 0.00 0.00 0.00 38 1009.7
20260503233017 25 187 3.2 12.9 0.00 0.00 0.00 37 1009.8
20260503232017 25 165 1.6 12.9 0.00 0.00 0.00 37 1009.8
20260503231017 25 202 4.8 17.7 0.00 0.00 0.00 36 1009.9
20260503230017 25 182 3.2 9.7 0.00 0.00 0.00 36 1010.0
20260503225017 25 210 4.8 16.1 0.00 0.00 0.00 35 1010.0
20260503224037 25 188 4.8 14.5 0.00 0.00 0.00 34 1010.0
20260503223037 26 175 4.8 12.9 0.00 0.00 0.00 34 1010.1
20260503222017 26 154 3.2 12.9 0.00 0.00 0.00 34 1010.2
20260503221017 26 183 4.8 14.5 0.00 0.00 0.00 32 1010.3
20260503220037 26 163 3.2 14.5 0.00 0.00 0.00 32 1010.4
20260503215037 25 168 1.6 16.1 0.00 0.00 0.00 33 1010.6
20260503214017 25 171 6.4 14.5 0.00 0.00 0.00 32 1010.7
20260503213037 25 190 6.4 25.7 0.00 0.00 0.00 32 1010.6
20260503212037 26 182 3.2 12.9 0.00 0.00 0.00 32 1010.7
20260503211017 25 175 4.8 12.9 0.00 0.00 0.00 32 1010.9
20260503210037 25 164 4.8 16.1 0.00 0.00 0.00 33 1011.0
20260503205017 25 203 8.0 14.5 0.00 0.00 0.00 32 1011.1
20260503204017 25 209 6.4 20.9 0.00 0.00 0.00 32 1011.2
20260503203017 25 178 8.0 22.5 0.00 0.00 0.00 32 1011.3
20260503202017 25 175 8.0 19.3 0.00 0.00 0.00 32 1011.5
20260503201017 24 185 9.7 25.7 0.00 0.00 0.00 32 1011.7
20260503200117 25 188 8.0 29.0 0.00 0.00 0.00 32 1012.0
20260503195035 24 178 4.8 19.3 0.00 0.00 0.00 33 1012.2
20260503194017 24 185 6.4 27.4 0.00 0.00 0.00 34 1012.5
20260503193017 23 191 6.4 16.1 0.00 0.00 0.00 34 1012.8
20260503192057 23 187 8.0 20.9 0.00 0.00 0.00 34 1013.1
20260503191017 23 182 6.4 22.5 0.00 0.00 0.00 34 1013.3
20260503190017 23 172 6.4 16.1 0.00 0.00 0.00 35 1013.5
20260503185017 22 188 8.0 17.7 0.00 0.00 0.00 35 1013.7
20260503184037 22 185 8.0 16.1 0.00 0.00 0.00 35 1013.9
20260503183015 22 197 8.0 24.1 0.00 0.00 0.00 35 1014.0
20260503182037 22 174 8.0 20.9 0.00 0.00 0.00 34 1014.3
20260503181017 22 181 4.8 16.1 0.00 0.00 0.00 35 1014.4